Location: ?????????
(54.7630°N, 39.4991°E)
Time: 21:38:30
(UTC+00:00)

BREEZE-M R/B - Pass Details

Date: 14 April 2026
Orbit: 1038 x 14820 km, 50.7° (Epoch: 16 May)

Event Time Altitude Azimuth Distance (km) Brightness Sun altitude
Rises 20:52:42 0° 249° (WSW) 6,457 8.1 -25.3°
Reaches altitude 10° 20:57:40 10° 247° (WSW) 4,397 7.2 -25.4°
Maximum altitude 21:06:20 60° 169° (S) 1,304 4.3 -25.5°
Drops below altitude 10° 21:11:53 10° 90° (E) 2,866 6.4 -25.5°
Sets 21:14:23 0° 86° (E) 3,974 7.2 -25.6°
